{"data":{"norad_id":60989,"intl_designator":"2024-157A","name":"SENTINEL-2C","alt_names":[],"object_type":"PAYLOAD","status":"ACTIVE","operator":null,"country":"ESA","launch_date":"2024-09-05","launch_site_code":"FRGUI","launch_vehicle":null,"mission":null,"orbit_class":"UNKNOWN","rcs_meters":null,"size_class":null,"mass_kg":null,"dimensions":null,"purposes":["earth_obs"],"wikipedia_slug":null,"has_3d_model":false,"image_url":null,"decayed_at":null,"tle_current":{"epoch":"2026-09-19T03:48:19.506240Z","epoch_age_seconds":137908,"freshness":"FRESH","line1":"1 60989U 24157A   26262.15855910  .00000048  00000+0  34986-4 0  9998","line2":"2 60989  98.5719 335.5848 0001361  86.1795 273.9544 14.30814319106427","mean_motion":14.30814319,"eccentricity":0.0001361,"inclination_deg":98.5719,"raan_deg":335.5848,"arg_perigee_deg":86.1795,"mean_anomaly_deg":273.9544,"bstar":3.4986e-5,"rev_number":10642,"period_min":100.64198973116,"perigee_km":788.03472916543,"apogee_km":789.98562662725,"semimajor_km":7167.1471778963,"source":"CELESTRAK","updated_at":"2026-09-20T09:00:33.980432Z"}}}